| time (UTC) | temp F | wind direction | speed MPH | gust MPH | rain 1hr in | rain 24hr in | rain mn in | humidity % | barometer mb |
| 20260901033817 | 92 | 107 | 12.0 | 15.0 | 0.00 | 0.00 | 0.00 | 42 | 1007.5 |
| 20260901032816 | 92 | 93 | 11.0 | 15.0 | 0.00 | 0.00 | 0.00 | 42 | 1007.5 |
| 20260901031817 | 93 | 102 | 13.0 | 16.0 | 0.00 | 0.00 | 0.00 | 41 | 1007.3 |
| 20260901030817 | 93 | 104 | 11.0 | 14.0 | 0.00 | 0.00 | 0.00 | 41 | 1007.1 |
| 20260901025816 | 95 | 101 | 13.0 | 16.0 | 0.00 | 0.00 | 0.00 | 39 | 1006.8 |
| 20260901024817 | 98 | 106 | 11.0 | 14.0 | 0.00 | 0.00 | 0.00 | 35 | 1006.7 |
| 20260901023817 | 99 | 149 | 0.0 | 3.0 | 0.00 | 0.00 | 0.00 | 30 | 1006.2 |
| 20260901022817 | 99 | 0.0 | 0.0 | 0.00 | 0.00 | 0.00 | 30 | 1006.1 | |
| 20260901021817 | 99 | 0.0 | 0.0 | 0.00 | 0.00 | 0.00 | 30 | 1005.9 | |
| 20260901020816 | 100 | 162 | 0.0 | 0.0 | 0.00 | 0.00 | 0.00 | 29 | 1005.9 |
| 20260901015817 | 100 | 165 | 0.0 | 0.0 | 0.00 | 0.00 | 0.00 | 30 | 1005.8 |
| 20260901014816 | 101 | 0.0 | 0.0 | 0.00 | 0.00 | 0.00 | 29 | 1005.7 | |
| 20260901013817 | 102 | 156 | 4.0 | 7.0 | 0.00 | 0.00 | 0.00 | 28 | 1005.6 |
| 20260901012816 | 102 | 173 | 1.0 | 4.0 | 0.00 | 0.00 | 0.00 | 28 | 1005.4 |
| 20260901011817 | 103 | 174 | 0.0 | 3.0 | 0.00 | 0.00 | 0.00 | 28 | 1005.4 |
| 20260901010816 | 103 | 144 | 3.0 | 6.0 | 0.00 | 0.00 | 0.00 | 28 | 1005.4 |
| 20260901005816 | 104 | 158 | 7.0 | 9.0 | 0.00 | 0.00 | 0.00 | 27 | 1005.3 |
| 20260901004817 | 104 | 156 | 2.0 | 6.0 | 0.00 | 0.00 | 0.00 | 26 | 1005.2 |
| 20260901003817 | 104 | 136 | 7.0 | 10.0 | 0.00 | 0.00 | 0.00 | 26 | 1005.2 |
| 20260901002816 | 105 | 161 | 2.0 | 7.0 | 0.00 | 0.00 | 0.00 | 26 | 1005.2 |
| 20260901001817 | 105 | 170 | 1.0 | 5.0 | 0.00 | 0.00 | 0.00 | 25 | 1005.2 |
| 20260901000816 | 105 | 163 | 7.0 | 10.0 | 0.00 | 0.00 | 0.00 | 25 | 1005.1 |
| 20260831235817 | 105 | 185 | 6.0 | 9.0 | 0.00 | 0.00 | 0.00 | 23 | 1005.2 |
| 20260831234817 | 105 | 210 | 4.0 | 8.0 | 0.00 | 0.00 | 0.00 | 23 | 1005.3 |
| 20260831233817 | 105 | 202 | 5.0 | 9.0 | 0.00 | 0.00 | 0.00 | 23 | 1005.3 |
| 20260831232816 | 106 | 215 | 7.0 | 9.0 | 0.00 | 0.00 | 0.00 | 22 | 1005.3 |
| 20260831231817 | 105 | 220 | 5.0 | 8.0 | 0.00 | 0.00 | 0.00 | 22 | 1005.5 |
| 20260831230817 | 104 | 191 | 9.0 | 11.0 | 0.00 | 0.00 | 0.00 | 22 | 1005.7 |
| 20260831225816 | 103 | 197 | 4.0 | 10.0 | 0.00 | 0.00 | 0.00 | 21 | 1005.8 |
| 20260831224817 | 102 | 213 | 8.0 | 12.0 | 0.00 | 0.00 | 0.00 | 24 | 1005.9 |
| 20260831223816 | 102 | 207 | 11.0 | 14.0 | 0.00 | 0.00 | 0.00 | 26 | 1006.0 |
| 20260831222817 | 102 | 203 | 11.0 | 15.0 | 0.00 | 0.00 | 0.00 | 25 | 1006.3 |
| 20260831221816 | 102 | 196 | 12.0 | 15.0 | 0.00 | 0.00 | 0.00 | 25 | 1006.5 |
| 20260831220817 | 102 | 182 | 11.0 | 15.0 | 0.00 | 0.00 | 0.00 | 32 | 1006.4 |
| 20260831215817 | 103 | 180 | 12.0 | 14.0 | 0.00 | 0.00 | 0.00 | 32 | 1006.7 |
| 20260831214816 | 105 | 147 | 7.0 | 10.0 | 0.00 | 0.00 | 0.00 | 29 | 1006.6 |
| 20260831213816 | 106 | 155 | 9.0 | 11.0 | 0.00 | 0.00 | 0.00 | 28 | 1006.3 |
| 20260831212817 | 106 | 168 | 5.0 | 6.0 | 0.00 | 0.00 | 0.00 | 29 | 1006.6 |
| 20260831211816 | 109 | 165 | 4.0 | 9.0 | 0.00 | 0.00 | 0.00 | 27 | 1006.8 |
| 20260831210817 | 108 | 160 | 2.0 | 3.0 | 0.00 | 0.00 | 0.00 | 27 | 1006.9 |
| 20260831210717 | 109 | 152 | 8.0 | 10.0 | 0.00 | 0.00 | 0.00 | 26 | 1007.0 |
| 20260831205717 | 108 | 219 | 5.0 | 8.0 | 0.00 | 0.00 | 0.00 | 27 | 1007.2 |
| 20260831204716 | 107 | 0.0 | 0.0 | 0.00 | 0.00 | 0.00 | 27 | 1007.4 | |
| 20260831203716 | 108 | 141 | 9.0 | 13.0 | 0.00 | 0.00 | 0.00 | 27 | 1007.6 |
| 20260831202717 | 108 | 172 | 8.0 | 12.0 | 0.00 | 0.00 | 0.00 | 27 | 1007.7 |
| 20260831201717 | 107 | 192 | 7.0 | 12.0 | 0.00 | 0.00 | 0.00 | 28 | 1007.7 |
| 20260831200717 | 107 | 143 | 4.0 | 14.0 | 0.00 | 0.00 | 0.00 | 29 | 1007.9 |
| 20260831195717 | 107 | 153 | 3.0 | 5.0 | 0.00 | 0.00 | 0.00 | 29 | 1008.0 |
| 20260831194716 | 107 | 182 | 7.0 | 10.0 | 0.00 | 0.00 | 0.00 | 29 | 1008.2 |
| 20260831193717 | 106 | 178 | 8.0 | 11.0 | 0.00 | 0.00 | 0.00 | 30 | 1008.3 |
| 20260831192716 | 107 | 166 | 8.0 | 11.0 | 0.00 | 0.00 | 0.00 | 30 | 1008.4 |
| 20260831191717 | 105 | 188 | 1.0 | 8.0 | 0.00 | 0.00 | 0.00 | 30 | 1008.6 |
| 20260831190716 | 105 | 215 | 4.0 | 7.0 | 0.00 | 0.00 | 0.00 | 34 | 1008.8 |
| 20260831185717 | 101 | 349 | 0.0 | 1.0 | 0.00 | 0.00 | 0.00 | 40 | 1008.9 |
| 20260831184717 | 102 | 198 | 1.0 | 4.0 | 0.00 | 0.00 | 0.00 | 39 | 1009.1 |
| 20260831183717 | 102 | 162 | 2.0 | 8.0 | 0.00 | 0.00 | 0.00 | 39 | 1009.1 |
| 20260831182716 | 102 | 0.0 | 0.0 | 0.00 | 0.00 | 0.00 | 36 | 1009.2 | |
| 20260831181617 | 101 | 0.0 | 0.0 | 0.00 | 0.00 | 0.00 | 34 | 1009.2 | |
| 20260831181017 | 103 | 178 | 0.0 | 1.0 | 0.00 | 0.00 | 0.00 | 32 | 1009.2 |
| 20260831180017 | 102 | 337 | 0.0 | 1.0 | 0.00 | 0.00 | 0.00 | 29 | 1009.2 |
| 20260831175016 | 102 | 56 | 2.0 | 4.0 | 0.00 | 0.00 | 0.00 | 28 | 1009.3 |
| 20260831174017 | 102 | 14 | 0.0 | 1.0 | 0.00 | 0.00 | 0.00 | 26 | 1009.4 |
| 20260831173017 | 101 | 0.0 | 0.0 | 0.00 | 0.00 | 0.00 | 26 | 1009.3 | |
| 20260831172016 | 101 | 0.0 | 0.0 | 0.00 | 0.00 | 0.00 | 25 | 1009.4 | |
| 20260831171017 | 101 | 237 | 2.0 | 6.0 | 0.00 | 0.00 | 0.00 | 24 | 1009.4 |
| 20260831170017 | 100 | 0.0 | 0.0 | 0.00 | 0.00 | 0.00 | 25 | 1009.4 | |
| 20260831165016 | 99 | 0.0 | 0.0 | 0.00 | 0.00 | 0.00 | 24 | 1009.3 | |
| 20260831164017 | 98 | 0.0 | 0.0 | 0.00 | 0.00 | 0.00 | 24 | 1009.4 | |
| 20260831163021 | 98 | 0.0 | 0.0 | 0.00 | 0.00 | 0.00 | 21 | 1009.3 | |
| 20260831162018 | 97 | 0.0 | 0.0 | 0.00 | 0.00 | 0.00 | 20 | 1009.2 | |
| 20260831161019 | 97 | 298 | 0.0 | 2.0 | 0.00 | 0.00 | 0.00 | 18 | 1009.1 |
| 20260831160025 | 96 | 247 | 1.0 | 2.0 | 0.00 | 0.00 | 0.00 | 19 | 1009.2 |
| 20260831155018 | 96 | 0.0 | 0.0 | 0.00 | 0.00 | 0.00 | 19 | 1009.2 | |
| 20260831154019 | 96 | 239 | 0.0 | 3.0 | 0.00 | 0.00 | 0.00 | 20 | 1009.2 |
| 20260831153020 | 95 | 272 | 0.0 | 0.0 | 0.00 | 0.00 | 0.00 | 19 | 1009.3 |
| 20260831152017 | 94 | 0.0 | 0.0 | 0.00 | 0.00 | 0.00 | 20 | 1009.4 | |
| 20260831151017 | 94 | 0.0 | 0.0 | 0.00 | 0.00 | 0.00 | 21 | 1009.4 | |
| 20260831150018 | 93 | 0.0 | 0.0 | 0.00 | 0.00 | 0.00 | 24 | 1009.3 | |
| 20260831145017 | 92 | 228 | 2.0 | 5.0 | 0.00 | 0.00 | 0.00 | 38 | 1009.3 |
| 20260831144017 | 91 | 216 | 1.0 | 5.0 | 0.00 | 0.00 | 0.00 | 44 | 1009.2 |
| 20260831143217 | 89 | 0.0 | 0.0 | 0.00 | 0.00 | 0.00 | 56 | 1009.2 | |
| 20260831142220 | 89 | 198 | 0.0 | 0.0 | 0.00 | 0.00 | 0.00 | 58 | 1009.1 |
| 20260831141217 | 88 | 0.0 | 0.0 | 0.00 | 0.00 | 0.00 | 61 | 1009.1 | |
| 20260831140217 | 87 | 0.0 | 0.0 | 0.00 | 0.00 | 0.00 | 67 | 1009.0 | |
| 20260831135218 | 87 | 0.0 | 0.0 | 0.00 | 0.00 | 0.00 | 69 | 1008.8 | |
| 20260831134217 | 86 | 0.0 | 0.0 | 0.00 | 0.00 | 0.00 | 70 | 1008.7 | |
| 20260831133217 | 87 | 0.0 | 0.0 | 0.00 | 0.00 | 0.00 | 70 | 1008.5 | |
| 20260831132218 | 86 | 0.0 | 0.0 | 0.00 | 0.00 | 0.00 | 72 | 1008.4 | |
| 20260831131217 | 87 | 173 | 2.0 | 2.0 | 0.00 | 0.00 | 0.00 | 71 | 1008.2 |
| 20260831130216 | 87 | 147 | 0.0 | 0.0 | 0.00 | 0.00 | 0.00 | 70 | 1008.0 |
| 20260831125217 | 87 | 184 | 0.0 | 2.0 | 0.00 | 0.00 | 0.00 | 71 | 1007.9 |
| 20260831124216 | 87 | 155 | 1.0 | 5.0 | 0.00 | 0.00 | 0.00 | 70 | 1007.8 |
| 20260831123217 | 87 | 172 | 5.0 | 7.0 | 0.00 | 0.00 | 0.00 | 69 | 1007.7 |
| 20260831122917 | 88 | 155 | 0.0 | 2.0 | 0.00 | 0.00 | 0.00 | 69 | 1007.6 |
| 20260831121916 | 88 | 189 | 3.0 | 6.0 | 0.00 | 0.00 | 0.00 | 68 | 1007.6 |
| 20260831120917 | 88 | 0.0 | 0.0 | 0.00 | 0.00 | 0.00 | 68 | 1007.5 | |
| 20260831115916 | 88 | 149 | 6.0 | 8.0 | 0.00 | 0.00 | 0.00 | 66 | 1007.4 |
| 20260831114917 | 88 | 195 | 2.0 | 4.0 | 0.00 | 0.00 | 0.00 | 69 | 1007.4 |
| 20260831113917 | 87 | 175 | 5.0 | 6.0 | 0.00 | 0.00 | 0.00 | 70 | 1007.4 |
| 20260831112916 | 87 | 0.0 | 0.0 | 0.00 | 0.00 | 0.00 | 70 | 1007.5 | |
| 20260831111917 | 88 | 0.0 | 0.0 | 0.00 | 0.00 | 0.00 | 69 | 1007.5 | |
| 20260831110917 | 88 | 0.0 | 0.0 | 0.00 | 0.00 | 0.00 | 69 | 1007.5 | |
| 20260831105916 | 88 | 0.0 | 0.0 | 0.00 | 0.00 | 0.00 | 69 | 1007.4 | |
| 20260831104917 | 88 | 195 | 0.0 | 0.0 | 0.00 | 0.00 | 0.00 | 69 | 1007.4 |
| 20260831103916 | 88 | 197 | 1.0 | 5.0 | 0.00 | 0.00 | 0.00 | 68 | 1007.3 |
| 20260831102917 | 88 | 0.0 | 0.0 | 0.00 | 0.00 | 0.00 | 67 | 1007.2 | |
| 20260831101917 | 89 | 0.0 | 0.0 | 0.00 | 0.00 | 0.00 | 66 | 1007.1 | |
| 20260831100917 | 88 | 198 | 0.0 | 1.0 | 0.00 | 0.00 | 0.00 | 65 | 1007.1 |
| 20260831095916 | 89 | 0.0 | 0.0 | 0.00 | 0.00 | 0.00 | 64 | 1007.0 | |
| 20260831094917 | 88 | 0.0 | 0.0 | 0.00 | 0.00 | 0.00 | 63 | 1006.9 | |
| 20260831093917 | 88 | 0.0 | 0.0 | 0.00 | 0.00 | 0.00 | 63 | 1006.9 | |
| 20260831092916 | 88 | 0.0 | 0.0 | 0.00 | 0.00 | 0.00 | 62 | 1006.9 | |
| 20260831091916 | 89 | 0.0 | 0.0 | 0.00 | 0.00 | 0.00 | 62 | 1006.9 | |
| 20260831090917 | 89 | 0.0 | 0.0 | 0.00 | 0.00 | 0.00 | 62 | 1007.0 | |
| 20260831085917 | 89 | 0.0 | 0.0 | 0.00 | 0.00 | 0.00 | 61 | 1007.1 | |
| 20260831085217 | 89 | 0.0 | 0.0 | 0.00 | 0.00 | 0.00 | 62 | 1007.2 | |
| 20260831084216 | 89 | 0.0 | 0.0 | 0.00 | 0.00 | 0.00 | 62 | 1007.2 | |
| 20260831083217 | 89 | 0.0 | 0.0 | 0.00 | 0.00 | 0.00 | 61 | 1007.2 | |
| 20260831082216 | 89 | 0.0 | 0.0 | 0.00 | 0.00 | 0.00 | 60 | 1007.2 | |
| 20260831081216 | 90 | 0.0 | 0.0 | 0.00 | 0.00 | 0.00 | 60 | 1007.2 | |
| 20260831080216 | 90 | 164 | 2.0 | 5.0 | 0.00 | 0.00 | 0.00 | 59 | 1007.3 |
| 20260831075217 | 90 | 175 | 2.0 | 3.0 | 0.00 | 0.00 | 0.00 | 59 | 1007.3 |
| 20260831074217 | 90 | 164 | 3.0 | 6.0 | 0.00 | 0.00 | 0.00 | 58 | 1007.4 |
| 20260831073217 | 90 | 157 | 1.0 | 3.0 | 0.00 | 0.00 | 0.00 | 58 | 1007.3 |
| 20260831072216 | 91 | 0.0 | 0.0 | 0.00 | 0.00 | 0.00 | 57 | 1007.3 | |
| 20260831071217 | 91 | 162 | 3.0 | 5.0 | 0.00 | 0.00 | 0.00 | 56 | 1007.2 |
| 20260831070217 | 91 | 156 | 4.0 | 6.0 | 0.00 | 0.00 | 0.00 | 56 | 1007.2 |
| 20260831065017 | 91 | 0.0 | 0.0 | 0.00 | 0.00 | 0.00 | 56 | 1007.2 | |
| 20260831064015 | 91 | 150 | 5.0 | 7.0 | 0.00 | 0.00 | 0.00 | 56 | 1007.1 |
| 20260831063917 | 91 | 0.0 | 0.0 | 0.00 | 0.00 | 0.00 | 56 | 1007.1 | |
| 20260831063216 | 91 | 155 | 6.0 | 8.0 | 0.00 | 0.00 | 0.00 | 55 | 1007.1 |
| 20260831062217 | 92 | 152 | 6.0 | 9.0 | 0.00 | 0.00 | 0.00 | 55 | 1007.1 |
| 20260831061316 | 92 | 158 | 7.0 | 9.0 | 0.00 | 0.00 | 0.00 | 54 | 1007.0 |
| 20260831060316 | 92 | 150 | 6.0 | 7.0 | 0.00 | 0.00 | 0.00 | 52 | 1007.0 |
| 20260831055316 | 92 | 155 | 8.0 | 9.0 | 0.00 | 0.00 | 0.00 | 50 | 1006.9 |
| 20260831054317 | 92 | 174 | 6.0 | 8.0 | 0.00 | 0.00 | 0.00 | 49 | 1006.9 |
| 20260831053319 | 92 | 179 | 5.0 | 7.0 | 0.00 | 0.00 | 0.00 | 48 | 1006.8 |
| 20260831052317 | 93 | 181 | 5.0 | 7.0 | 0.00 | 0.00 | 0.00 | 48 | 1006.9 |
| 20260831051317 | 93 | 167 | 2.0 | 4.0 | 0.00 | 0.00 | 0.00 | 49 | 1006.9 |
| 20260831050516 | 93 | 178 | 7.0 | 9.0 | 0.00 | 0.00 | 0.00 | 48 | 1007.0 |
| 20260831045517 | 93 | 163 | 6.0 | 8.0 | 0.00 | 0.00 | 0.00 | 47 | 1007.0 |
| 20260831044516 | 94 | 165 | 4.0 | 8.0 | 0.00 | 0.00 | 0.00 | 47 | 1007.1 |
| 20260831043517 | 94 | 188 | 6.0 | 8.0 | 0.00 | 0.00 | 0.00 | 45 | 1006.9 |
| 20260831042517 | 95 | 191 | 5.0 | 7.0 | 0.00 | 0.00 | 0.00 | 43 | 1006.8 |
| 20260831041617 | 95 | 172 | 8.0 | 10.0 | 0.00 | 0.00 | 0.00 | 42 | 1006.5 |
| 20260831035916 | 95 | 168 | 9.0 | 12.0 | 0.00 | 0.00 | 0.00 | 46 | 1006.1 |
| 20260831034916 | 96 | 157 | 9.0 | 11.0 | 0.00 | 0.00 | 0.00 | 45 | 1005.7 |